Le nostre stazioni meteo in Italia

Pubblicità
Il mio iltempo24.it
Messina, Italia (16420): Temperatura & dewpoint: 13.04.2019 17:00:00 - 19.04.2019 17:00:00 (CEST)Messina, Italia (16420): velocità del vento: 13.04.2019 17:00:00 - 19.04.2019 17:00:00 (CEST)Messina, Italia (16420): direzione del vento: 13.04.2019 17:00:00 - 19.04.2019 17:00:00 (CEST)Messina, Italia (16420): reduced air pressure: 13.04.2019 17:00:00 - 19.04.2019 17:00:00 (CEST)Messina, Italia (16420): visibility: 13.04.2019 17:00:00 - 19.04.2019 17:00:00 (CEST)Messina, Italia (16420): ore di luce: 13.04.2019 17:00:00 - 19.04.2019 17:00:00 (CEST)
Data & Tempo tt [°C] td [°C] ff [km/h] ff [kn] dd ppp [hPa] vv [km] sd [min]
19.04.2019 17:00:00 17,8 -3,0 18 10 SSO 1024,5 10 60
19.04.2019 16:00:00 18,2 -1,1 18 10 SSO 1024,4 10 60
19.04.2019 15:00:00 18,8 0,9 18 10 SSO 1024,8 10 60
19.04.2019 14:00:00 18,2 2,5 22 12 SSO 1024,9 10 60
19.04.2019 13:00:00 17,6 4,6 18 10 SSO 1025,0 10 60
19.04.2019 12:00:00 17,2 4,5 26 14 SSO 1024,9 10 60
19.04.2019 11:00:00 17,0 5,0 18 10 SSO 1024,7 10 60
19.04.2019 10:00:00 16,0 9,0 15 8 SE 1024,5 10 60
19.04.2019 09:00:00 15,0 9,6 5 3 SSO 1024,4 10 60
19.04.2019 08:00:00 13,8 10,8 5 3 OSO 1024,0 10 24
19.04.2019 07:00:00 12,4 11,3 5 3 OSO 1023,6 10 0
19.04.2019 06:00:00 12,4 11,6 8 4 O 1023,6 10 -
19.04.2019 05:00:00 12,6 11,7 8 4 OSO 1023,5 10 -
19.04.2019 04:00:00 12,8 11,9 4 2 OSO 1023,5 10 -
19.04.2019 03:00:00 12,8 12,0 0 0 N 1023,5 10 -
19.04.2019 02:00:00 13,0 11,6 0 0 N 1023,6 10 -
19.04.2019 01:00:00 13,2 11,4 4 2 OSO 1023,5 10 -
19.04.2019 00:00:00 13,6 11,7 4 2 OSO 1022,8 10 -
18.04.2019 23:00:00 14,2 11,5 4 2 SO 1022,6 10 -
18.04.2019 22:00:00 14,4 11,6 5 3 SO 1022,2 10 -
18.04.2019 21:00:00 15,0 12,5 8 4 SO 1021,7 10 -
18.04.2019 20:00:00 15,8 11,2 9 5 SSO 1020,6 20 0
18.04.2019 19:00:00 16,0 10,7 15 8 SSO 1020,4 20 48
18.04.2019 18:00:00 17,2 9,1 18 10 SSO 1020,4 20 60
18.04.2019 17:00:00 17,6 7,6 18 10 SSO 1020,4 20 60
18.04.2019 16:00:00 18,4 4,2 21 11 SSO 1020,4 20 60
18.04.2019 15:00:00 18,2 4,4 21 11 SO 1020,5 20 60
18.04.2019 14:00:00 18,2 5,4 18 10 SSO 1020,5 10 60
18.04.2019 13:00:00 17,4 6,9 15 8 SSO 1020,5 10 60
18.04.2019 12:00:00 17,2 11,9 11 6 E 1020,5 10 60
18.04.2019 11:00:00 17,4 10,3 15 8 ENE 1020,5 10 60
18.04.2019 10:00:00 16,4 12,6 15 8 NE 1020,5 10 60
18.04.2019 09:00:00 15,4 13,1 15 8 NE 1020,4 10 60
18.04.2019 08:00:00 15,0 10,4 5 3 NE 1019,9 20 36
18.04.2019 07:00:00 13,4 10,0 4 2 N 1019,7 20 0
18.04.2019 06:00:00 13,4 10,2 8 4 NNE 1019,6 10 -
18.04.2019 05:00:00 13,6 10,2 8 4 N 1019,6 10 -
18.04.2019 04:00:00 13,4 9,5 9 5 NO 1019,8 20 -
18.04.2019 03:00:00 13,6 9,3 8 4 NO 1020,0 20 -
18.04.2019 02:00:00 13,8 10,6 9 5 NNO 1020,0 10 -
18.04.2019 01:00:00 13,8 11,1 2 1 NO 1020,0 20 -
18.04.2019 00:00:00 13,8 11,3 5 3 N 1019,9 20 -
17.04.2019 23:00:00 14,4 11,7 4 2 NE 1019,9 10 -
17.04.2019 22:00:00 14,6 11,2 8 4 NNE 1019,8 10 -
17.04.2019 21:00:00 14,8 11,0 5 3 NNO 1019,3 10 -
17.04.2019 20:00:00 15,6 11,2 5 3 NNE 1018,8 10 -
17.04.2019 19:00:00 16,6 8,8 9 5 NNE 1018,6 20 54
17.04.2019 18:00:00 18,4 4,9 8 4 NNE 1018,5 20 60
17.04.2019 17:00:00 18,0 4,9 5 3 ONO 1018,5 20 18
17.04.2019 16:00:00 18,2 4,4 8 4 NO 1018,6 20 0
17.04.2019 15:00:00 18,2 5,1 13 7 N 1019,1 20 54
17.04.2019 14:00:00 18,6 5,8 9 5 N 1019,2 20 60
17.04.2019 13:00:00 18,2 6,7 11 6 NNE 1019,4 20 60
17.04.2019 12:00:00 17,8 8,9 9 5 ENE 1019,4 20 60
17.04.2019 11:00:00 16,6 11,7 9 5 NE 1019,3 20 18
17.04.2019 10:00:00 16,2 10,5 8 4 NE 1019,1 10 12
17.04.2019 09:00:00 15,4 8,6 9 5 N 1018,7 10 0
17.04.2019 08:00:00 14,6 10,0 5 3 NNE 1018,7 10 0
17.04.2019 07:00:00 14,2 10,8 5 3 NNE 1018,8 10 -
17.04.2019 06:00:00 14,2 10,2 8 4 NE 1018,6 10 -
17.04.2019 05:00:00 14,2 10,4 4 2 NNE 1018,6 10 -
17.04.2019 04:00:00 14,2 9,8 8 4 NO 1018,6 10 -
17.04.2019 03:00:00 14,0 10,0 5 3 NO 1019,1 10 -
17.04.2019 02:00:00 14,4 11,9 4 2 NNE 1019,4 10 -
17.04.2019 01:00:00 14,6 11,4 5 3 N 1019,7 10 -
17.04.2019 00:00:00 14,4 9,4 5 3 N 1019,7 10 -
16.04.2019 23:00:00 14,4 11,9 5 3 NNO 1019,8 10 -
16.04.2019 22:00:00 15,0 12,9 2 1 NO 1019,5 20 -
16.04.2019 21:00:00 15,0 12,5 5 3 SSO 1019,4 20 -
16.04.2019 20:00:00 15,4 11,8 5 3 SSO 1018,8 20 -
16.04.2019 19:00:00 15,6 11,6 8 4 SSO 1018,6 20 0
16.04.2019 18:00:00 16,4 10,3 5 3 SSO 1018,7 20 0
16.04.2019 17:00:00 17,4 10,1 9 5 S 1018,6 20 24
16.04.2019 16:00:00 17,6 10,5 8 4 S 1018,9 20 0
16.04.2019 15:00:00 17,2 7,6 11 6 SSO 1019,2 20 18
16.04.2019 14:00:00 17,2 9,9 9 5 SSE 1019,3 20 42
16.04.2019 13:00:00 16,6 10,9 11 6 ENE 1019,2 20 48
16.04.2019 12:00:00 17,4 10,3 16 9 ENE 1019,0 20 60
16.04.2019 11:00:00 17,8 10,4 15 8 ENE 1019,1 20 60
16.04.2019 10:00:00 16,4 10,1 11 6 ENE 1018,7 20 60
16.04.2019 09:00:00 15,2 9,1 9 5 ENE 1018,6 10 60
16.04.2019 08:00:00 13,6 9,3 9 5 NO 1018,4 20 12
16.04.2019 07:00:00 13,4 9,3 8 4 NNO 1017,7 10 6
16.04.2019 06:00:00 13,6 9,7 13 7 NO 1016,9 10 -
16.04.2019 05:00:00 13,8 9,3 13 7 NO 1016,7 10 -
16.04.2019 04:00:00 13,8 9,3 15 8 ONO 1016,5 10 -
16.04.2019 03:00:00 13,8 10,2 13 7 ONO 1016,5 10 -
16.04.2019 02:00:00 13,8 10,6 16 9 ONO 1016,5 10 -
16.04.2019 01:00:00 13,8 10,4 5 3 ONO 1016,5 10 -
16.04.2019 00:00:00 14,0 12,2 16 9 ONO 1015,3 10 -
15.04.2019 23:00:00 14,0 12,2 18 10 ONO 1015,7 10 -
15.04.2019 22:00:00 14,0 10,2 13 7 N 1015,4 10 -
15.04.2019 21:00:00 14,0 9,8 5 3 S 1014,8 10 -
15.04.2019 20:00:00 13,8 9,7 11 6 N 1014,1 10 -
15.04.2019 19:00:00 14,2 9,2 11 6 NO 1013,3 10 0
15.04.2019 18:00:00 14,4 8,4 11 6 NNO 1012,7 10 0
15.04.2019 17:00:00 15,0 7,7 15 8 N 1012,0 10 36
15.04.2019 16:00:00 14,2 6,8 13 7 NNO 1011,5 10 18
15.04.2019 15:00:00 15,0 5,5 21 11 NNO 1010,5 20 42
15.04.2019 14:00:00 15,6 7,2 16 9 N 1009,8 20 54
15.04.2019 13:00:00 14,8 5,3 21 11 N 1009,5 20 60
15.04.2019 12:00:00 14,8 5,3 16 9 NO 1009,2 20 60
15.04.2019 11:00:00 13,8 5,8 24 13 NO 1009,3 20 30
15.04.2019 10:00:00 12,4 7,6 8 4 N 1009,5 20 0
15.04.2019 09:00:00 11,0 8,8 13 7 OSO 1009,5 10 0
15.04.2019 08:00:00 10,6 7,1 13 7 SO 1009,5 4,0 12
15.04.2019 07:00:00 10,6 9,0 28 15 N 1009,6 4,0 0
15.04.2019 06:00:00 11,2 9,5 0 0 N 1009,5 10 -
15.04.2019 05:00:00 11,2 8,1 5 3 OSO 1009,5 10 -
15.04.2019 04:00:00 11,4 8,6 0 0 N 1010,4 10 -
15.04.2019 03:00:00 11,4 9,0 8 4 OSO 1010,6 10 -
15.04.2019 02:00:00 12,0 10,1 5 3 O 1011,5 10 -
15.04.2019 01:00:00 12,0 10,7 0 0 N 1012,1 10 -
15.04.2019 00:00:00 12,0 9,9 4 2 SO 1012,5 10 -
14.04.2019 23:00:00 12,8 11,5 0 0 N 1012,5 10 -
14.04.2019 22:00:00 13,8 11,3 0 0 N 1012,4 10 -
14.04.2019 21:00:00 13,8 10,8 5 3 ONO 1012,3 10 -
14.04.2019 20:00:00 14,0 9,8 2 1 N 1012,0 10 -
14.04.2019 19:00:00 14,4 9,4 5 3 ONO 1012,1 10 0
14.04.2019 18:00:00 15,8 9,0 13 7 ONO 1012,0 10 54
14.04.2019 17:00:00 16,0 9,2 11 6 NO 1012,1 10 48
14.04.2019 16:00:00 15,6 9,5 15 8 ONO 1012,2 10 0
14.04.2019 15:00:00 14,2 8,8 13 7 NO 1012,4 10 12
14.04.2019 14:00:00 13,6 10,8 9 5 NO 1012,7 10 0
14.04.2019 13:00:00 14,4 10,4 8 4 NE 1012,8 10 -
14.04.2019 12:00:00 13,8 10,6 5 3 NE 1012,8 10 0
14.04.2019 11:00:00 12,4 10,0 2 1 NE 1012,7 10 0
14.04.2019 10:00:00 13,2 10,2 9 5 O 1012,5 10 0
14.04.2019 09:00:00 13,0 11,1 5 3 NNO 1012,3 10 0
14.04.2019 08:00:00 12,6 9,2 15 8 ONO 1011,5 10 -
14.04.2019 07:00:00 12,8 10,0 18 10 ONO 1011,5 10 -
14.04.2019 06:00:00 12,6 10,1 16 9 ONO 1011,4 10 -
14.04.2019 05:00:00 12,0 10,6 4 2 N 1011,6 10 -
14.04.2019 04:00:00 12,0 9,9 13 7 NO 1011,7 10 -
14.04.2019 03:00:00 12,0 10,4 5 3 NNO 1011,7 10 -
14.04.2019 02:00:00 12,4 10,6 9 5 NNO 1012,0 10 -
14.04.2019 01:00:00 12,4 10,6 11 6 NO 1012,1 10 -
14.04.2019 00:00:00 13,0 11,4 9 5 N 1011,7 10 -
13.04.2019 23:00:00 12,6 11,0 11 6 ONO 1011,7 10 -
13.04.2019 22:00:00 12,8 11,5 13 7 ONO 1011,6 4,0 -
13.04.2019 21:00:00 13,0 10,0 11 6 OSO 1011,6 10 -
13.04.2019 20:00:00 14,0 9,1 5 3 ONO 1010,7 10 -
13.04.2019 19:00:00 14,0 8,2 11 6 ONO 1010,5 20 12
13.04.2019 18:00:00 14,6 9,2 18 10 NO 1010,5 20 12
13.04.2019 17:00:00 15,6 8,6 15 8 ONO 1010,2 20 48

tt = Temperatura
td = dewpoint
ff = velocità del vento
dd = direzione del vento
ppp = reduced air pressure
vv = visibility
sd = ore di luce

Stazioni seguenti

WeatherPro
AMSI
MeteoEarth